Location: Unspecified
(64.9000°N, 0.0000°E)
Time: 05:44:36
(UTC+00:00)

Transit 2A - All Passes

Search period start: 19 June 2019 00:00
Search period end: 29 June 2019 00:00
Orbit: 593 x 966 km, 66.7° (Epoch: 18 June)

Date Brightness Start Highest point End Pass type
(mag) Time Alt. Az. Time Alt. Az. Time Alt. Az.
19 Jun - 00:31:56 10° SSE 00:36:26 21° ESE 00:40:51 10° ENE daylight
19 Jun - 02:12:33 10° SSW 02:18:41 50° SE 02:24:32 10° ENE daylight
19 Jun - 03:55:25 10° WSW 04:01:48 89° NW 04:07:47 10° ENE daylight
19 Jun - 05:39:08 10° W 05:45:25 75° N 05:51:13 10° E daylight
19 Jun - 07:22:46 10° WNW 07:28:57 83° SSW 07:34:33 10° ESE daylight
19 Jun - 09:06:16 10° WNW 09:11:47 39° SW 09:16:49 10° SSE daylight
19 Jun - 10:50:47 10° WNW 10:53:32 14° WSW 10:56:10 10° SW daylight
19 Jun - 23:58:48 10° SE 00:02:38 17° ESE 00:06:24 10° ENE daylight
20 Jun - 01:38:43 10° SSW 01:44:41 43° SE 01:50:24 10° ENE daylight
20 Jun - 03:21:17 10° WSW 03:27:39 84° SSE 03:33:39 10° ENE daylight
20 Jun - 05:04:55 10° W 05:11:13 75° N 05:17:02 10° E daylight
20 Jun - 06:48:37 10° WNW 06:54:49 90° SSW 07:00:27 10° ESE daylight
20 Jun - 08:32:06 10° WNW 08:37:49 47° SW 08:43:00 10° SSE daylight
20 Jun - 10:16:09 10° WNW 10:19:47 17° WSW 10:23:13 10° SSW daylight
20 Jun - 23:26:01 10° SE 23:28:53 13° ESE 23:31:42 10° ENE daylight
21 Jun - 01:04:58 10° S 01:10:43 37° SE 01:16:14 10° ENE daylight
21 Jun - 02:47:10 10° SW 02:53:32 76° SSE 02:59:31 10° ENE daylight
21 Jun - 04:30:42 10° W 04:37:01 76° N 04:42:52 10° E daylight
21 Jun - 06:14:26 10° WNW 06:20:39 84° NNE 06:26:19 10° ESE daylight
21 Jun - 07:57:57 10° WNW 08:03:49 55° SW 08:09:07 10° SSE daylight
21 Jun - 09:41:43 10° WNW 09:46:00 21° WSW 09:49:59 10° SSW daylight
21 Jun - 22:54:13 10° ESE 22:55:09 10° E 22:56:08 10° E daylight
22 Jun - 00:31:20 10° S 00:36:47 31° ESE 00:42:02 10° ENE daylight
22 Jun - 02:13:08 10° SW 02:19:26 68° SE 02:25:24 10° ENE daylight
22 Jun - 03:56:30 10° W 04:02:50 79° NNW 04:08:42 10° ENE daylight
22 Jun - 05:40:15 10° WNW 05:46:29 80° NNE 05:52:09 10° E daylight
22 Jun - 07:23:47 10° WNW 07:29:46 64° SW 07:35:11 10° SE daylight
22 Jun - 09:07:25 10° WNW 09:12:10 26° WSW 09:16:33 10° S daylight
22 Jun - 23:57:48 10° S 00:02:53 26° ESE 00:07:49 10° ENE daylight
23 Jun - 01:39:08 10° SW 01:45:22 60° SE 01:51:16 10° ENE daylight
23 Jun - 03:22:17 10° WSW 03:28:39 83° NNW 03:34:33 10° ENE daylight
23 Jun - 05:06:03 10° WNW 05:12:17 77° N 05:17:59 10° E daylight
23 Jun - 06:49:38 10° WNW 06:55:42 72° SSW 07:01:10 10° SE daylight
23 Jun - 08:33:10 10° WNW 08:38:17 31° WSW 08:42:59 10° S daylight
23 Jun - 23:24:26 10° SSE 23:29:02 21° ESE 23:33:30 10° ENE daylight
24 Jun - 01:05:11 10° SSW 01:11:19 52° SE 01:17:08 10° ENE daylight
24 Jun - 02:48:07 10° WSW 02:54:28 88° NNW 03:00:24 10° ENE daylight
24 Jun - 04:31:50 10° W 04:38:05 75° N 04:43:49 10° E daylight
24 Jun - 06:15:29 10° WNW 06:21:35 81° SSW 06:27:06 10° ESE daylight
24 Jun - 07:58:58 10° WNW 08:04:22 37° SW 08:09:18 10° SSE daylight
24 Jun - 09:43:41 10° WNW 09:46:04 13° WSW 09:48:21 10° SW daylight
24 Jun - 22:51:16 10° SSE 22:55:13 18° ESE 22:59:05 10° ENE daylight
25 Jun - 00:31:20 10° SSW 00:37:18 45° SE 00:43:00 10° ENE daylight
25 Jun - 02:13:58 10° WSW 02:20:19 86° SSE 02:26:15 10° ENE daylight
25 Jun - 03:57:37 10° W 04:03:53 75° N 04:09:38 10° E daylight
25 Jun - 05:41:19 10° WNW 05:47:27 88° SSW 05:53:01 10° ESE daylight
25 Jun - 07:24:47 10° WNW 07:30:25 45° SW 07:35:31 10° SSE daylight
25 Jun - 09:08:56 10° WNW 09:12:19 16° WSW 09:15:32 10° SW daylight
25 Jun - 22:18:23 10° SE 22:21:27 14° ESE 22:24:28 10° ENE daylight
25 Jun - 23:57:34 10° SSW 00:03:20 38° SE 00:08:51 10° ENE daylight
26 Jun - 01:39:51 10° SW 01:46:11 78° SSE 01:52:07 10° ENE daylight
26 Jun - 03:23:24 10° W 03:29:41 76° N 03:35:28 10° E daylight
26 Jun - 05:07:09 10° WNW 05:13:18 85° NNE 05:18:53 10° ESE daylight
26 Jun - 06:50:38 10° WNW 06:56:25 53° SW 07:01:38 10° SSE daylight
26 Jun - 08:34:29 10° WNW 08:38:32 20° WSW 08:42:21 10° SSW daylight
26 Jun - 21:46:12 10° ESE 21:47:43 11° E 21:49:14 10° E daylight
26 Jun - 23:23:53 10° S 23:29:23 32° ESE 23:34:41 10° ENE daylight
27 Jun - 01:05:47 10° SW 01:12:05 70° SE 01:18:00 10° ENE daylight
27 Jun - 02:49:12 10° W 02:55:29 78° N 03:01:18 10° ENE daylight
27 Jun - 04:32:57 10° WNW 04:39:08 81° NNE 04:44:44 10° ESE daylight
27 Jun - 06:16:29 10° WNW 06:22:23 61° SW 06:27:42 10° SE daylight
27 Jun - 08:00:08 10° WNW 08:04:43 25° WSW 08:08:57 10° S daylight
27 Jun - 22:50:20 10° S 22:55:29 27° ESE 23:00:27 10° ENE daylight
28 Jun - 00:31:46 10° SW 00:38:00 62° SE 00:43:53 10° ENE daylight
28 Jun - 02:15:00 10° WSW 02:21:18 82° NNW 02:27:08 10° ENE daylight
28 Jun - 03:58:45 10° WNW 04:04:57 77° N 04:10:34 10° E daylight
28 Jun - 05:42:19 10° WNW 05:48:19 70° SW 05:53:43 10° SE daylight
28 Jun - 07:25:53 10° WNW 07:30:52 30° WSW 07:35:25 10° S daylight
28 Jun - 22:16:56 10° SSE 22:21:37 22° ESE 22:26:10 10° ENE daylight
